| time (UTC) | temp F | wind direction | speed MPH | gust MPH | rain 1hr in | rain 24hr in | rain mn in | humidity % | barometer mb |
| 20260510194542 | 80 | 0 | 0.0 | 2.0 | 0.00 | 0.00 | 0.00 | 66 | 1014.1 |
| 20260510194032 | 80 | 140 | 0.0 | 2.0 | 0.00 | 0.00 | 0.00 | 67 | 1014.2 |
| 20260510193532 | 80 | 0 | 0.0 | 2.0 | 0.00 | 0.00 | 0.00 | 69 | 1014.2 |
| 20260510193046 | 81 | 0 | 0.0 | 2.0 | 0.00 | 0.00 | 0.00 | 65 | 1014.2 |
| 20260510192533 | 81 | 0 | 0.0 | 3.0 | 0.00 | 0.00 | 0.00 | 66 | 1014.3 |
| 20260510192032 | 80 | 140 | 1.0 | 3.0 | 0.00 | 0.00 | 0.00 | 66 | 1014.4 |
| 20260510191554 | 81 | 0 | 0.0 | 3.0 | 0.00 | 0.00 | 0.00 | 66 | 1014.5 |
| 20260510191033 | 81 | 140 | 1.0 | 2.0 | 0.00 | 0.00 | 0.00 | 64 | 1014.3 |
| 20260510190532 | 81 | 140 | 0.0 | 2.0 | 0.00 | 0.00 | 0.00 | 63 | 1014.4 |
| 20260510190052 | 81 | 146 | 0.0 | 3.0 | 0.00 | 0.00 | 0.00 | 66 | 1014.5 |
| 20260510185533 | 81 | 0 | 0.0 | 3.0 | 0.00 | 0.00 | 0.00 | 64 | 1014.4 |
| 20260510185032 | 81 | 147 | 1.0 | 3.0 | 0.00 | 0.00 | 0.00 | 63 | 1014.4 |
| 20260510184543 | 81 | 142 | 1.0 | 2.0 | 0.00 | 0.00 | 0.00 | 63 | 1014.5 |
| 20260510184033 | 81 | 142 | 0.0 | 2.0 | 0.00 | 0.00 | 0.00 | 64 | 1014.5 |
| 20260510183535 | 81 | 143 | 0.0 | 3.0 | 0.00 | 0.00 | 0.00 | 63 | 1014.5 |
| 20260510183043 | 81 | 0 | 0.0 | 3.0 | 0.00 | 0.00 | 0.00 | 63 | 1014.5 |
| 20260510182532 | 81 | 143 | 1.0 | 3.0 | 0.00 | 0.00 | 0.00 | 61 | 1014.6 |
| 20260510182033 | 82 | 0 | 0.0 | 1.0 | 0.00 | 0.00 | 0.00 | 61 | 1014.7 |
| 20260510181546 | 81 | 0 | 0.0 | 1.0 | 0.00 | 0.00 | 0.00 | 60 | 1014.7 |
| 20260510181032 | 81 | 0 | 0.0 | 2.0 | 0.00 | 0.00 | 0.00 | 60 | 1014.9 |
| 20260510180534 | 80 | 0 | 0.0 | 2.0 | 0.00 | 0.00 | 0.00 | 64 | 1014.9 |
| 20260510180048 | 81 | 0 | 0.0 | 2.0 | 0.00 | 0.00 | 0.00 | 64 | 1015.0 |
| 20260510175532 | 80 | 0 | 0.0 | 2.0 | 0.00 | 0.00 | 0.00 | 66 | 1015.0 |
| 20260510175032 | 79 | 0 | 0.0 | 2.0 | 0.00 | 0.00 | 0.00 | 64 | 1015.0 |
| 20260510174545 | 80 | 0 | 0.0 | 2.0 | 0.00 | 0.00 | 0.00 | 64 | 1015.1 |
| 20260510174034 | 79 | 0 | 0.0 | 3.0 | 0.00 | 0.00 | 0.00 | 64 | 1015.0 |
| 20260510173532 | 79 | 0 | 0.0 | 3.0 | 0.00 | 0.00 | 0.00 | 66 | 1015.0 |
| 20260510173042 | 79 | 0 | 0.0 | 3.0 | 0.00 | 0.00 | 0.00 | 65 | 1015.0 |
| 20260510172532 | 78 | 337 | 0.0 | 2.0 | 0.00 | 0.00 | 0.00 | 67 | 1015.1 |
| 20260510172033 | 78 | 75 | 0.0 | 4.0 | 0.00 | 0.00 | 0.00 | 64 | 1015.2 |
| 20260510171548 | 78 | 0 | 0.0 | 4.0 | 0.00 | 0.00 | 0.00 | 64 | 1015.3 |
| 20260510171032 | 78 | 0 | 0.0 | 4.0 | 0.00 | 0.00 | 0.00 | 67 | 1015.2 |
| 20260510170532 | 78 | 0 | 0.0 | 2.0 | 0.00 | 0.00 | 0.00 | 65 | 1015.2 |
| 20260510170051 | 78 | 0 | 0.0 | 3.0 | 0.00 | 0.00 | 0.00 | 62 | 1015.3 |
| 20260510165532 | 78 | 0 | 0.0 | 3.0 | 0.00 | 0.00 | 0.00 | 63 | 1015.3 |
| 20260510165033 | 77 | 0 | 0.0 | 3.0 | 0.00 | 0.00 | 0.00 | 62 | 1015.2 |
| 20260510164547 | 77 | 0 | 0.0 | 5.0 | 0.00 | 0.00 | 0.00 | 65 | 1015.3 |
| 20260510164032 | 77 | 0 | 0.0 | 5.0 | 0.00 | 0.00 | 0.00 | 64 | 1015.4 |
| 20260510163533 | 78 | 334 | 0.0 | 5.0 | 0.00 | 0.00 | 0.00 | 62 | 1015.4 |
| 20260510163046 | 77 | 0 | 0.0 | 2.0 | 0.00 | 0.00 | 0.00 | 62 | 1015.4 |
| 20260510162534 | 77 | 0 | 0.0 | 2.0 | 0.00 | 0.00 | 0.00 | 61 | 1015.4 |
| 20260510162032 | 77 | 0 | 0.0 | 2.0 | 0.00 | 0.00 | 0.00 | 69 | 1015.4 |
| 20260510161542 | 76 | 0 | 0.0 | 1.0 | 0.00 | 0.00 | 0.00 | 69 | 1015.4 |
| 20260510161034 | 75 | 0 | 0.0 | 1.0 | 0.00 | 0.00 | 0.00 | 71 | 1015.4 |
| 20260510160532 | 75 | 0 | 0.0 | 1.0 | 0.00 | 0.00 | 0.00 | 74 | 1015.5 |
| 20260510160053 | 74 | 0 | 0.0 | 1.0 | 0.00 | 0.00 | 0.00 | 74 | 1015.5 |
| 20260510155533 | 74 | 0 | 0.0 | 1.0 | 0.00 | 0.00 | 0.00 | 72 | 1015.5 |
| 20260510155033 | 74 | 0 | 0.0 | 2.0 | 0.00 | 0.00 | 0.00 | 73 | 1015.6 |
| 20260510154552 | 74 | 0 | 0.0 | 2.0 | 0.00 | 0.00 | 0.00 | 75 | 1015.7 |
| 20260510154033 | 73 | 0 | 0.0 | 2.0 | 0.00 | 0.00 | 0.00 | 75 | 1015.6 |
| 20260510153535 | 73 | 0 | 0.0 | 2.0 | 0.00 | 0.00 | 0.00 | 75 | 1015.6 |
| 20260510153048 | 73 | 0 | 0.0 | 2.0 | 0.00 | 0.00 | 0.00 | 79 | 1015.6 |
| 20260510152532 | 73 | 0 | 0.0 | 1.0 | 0.00 | 0.00 | 0.00 | 80 | 1015.6 |
| 20260510152031 | 73 | 0 | 0.0 | 1.0 | 0.00 | 0.00 | 0.00 | 78 | 1015.6 |
| 20260510151543 | 73 | 0 | 0.0 | 2.0 | 0.00 | 0.00 | 0.00 | 83 | 1015.6 |
| 20260510151033 | 72 | 0 | 0.0 | 2.0 | 0.00 | 0.00 | 0.00 | 83 | 1015.5 |
| 20260510150532 | 72 | 0 | 0.0 | 1.0 | 0.00 | 0.00 | 0.00 | 83 | 1015.5 |
| 20260510150047 | 72 | 0 | 0.0 | 1.0 | 0.00 | 0.00 | 0.00 | 84 | 1015.5 |
| 20260510145532 | 71 | 0 | 0.0 | 1.0 | 0.00 | 0.00 | 0.00 | 84 | 1015.4 |
| 20260510145031 | 71 | 0 | 0.0 | 1.0 | 0.00 | 0.00 | 0.00 | 85 | 1015.4 |
| 20260510144544 | 71 | 0 | 0.0 | 1.0 | 0.00 | 0.00 | 0.00 | 87 | 1015.4 |
| 20260510144032 | 71 | 0 | 0.0 | 1.0 | 0.00 | 0.00 | 0.00 | 87 | 1015.3 |
| 20260510143533 | 70 | 0 | 0.0 | 1.0 | 0.00 | 0.00 | 0.00 | 88 | 1015.2 |
| 20260510143041 | 70 | 0 | 0.0 | 1.0 | 0.00 | 0.00 | 0.00 | 89 | 1015.2 |
| 20260510142533 | 70 | 0 | 0.0 | 1.0 | 0.00 | 0.00 | 0.00 | 91 | 1015.2 |
| 20260510142034 | 70 | 0 | 0.0 | 1.0 | 0.00 | 0.00 | 0.00 | 92 | 1015.2 |
| 20260510141545 | 69 | 0 | 0.0 | 0.0 | 0.00 | 0.00 | 0.00 | 92 | 1015.3 |
| 20260510141031 | 69 | 0 | 0.0 | 0.0 | 0.00 | 0.00 | 0.00 | 93 | 1015.3 |
| 20260510140532 | 69 | 0 | 0.0 | 2.0 | 0.00 | 0.00 | 0.00 | 93 | 1015.1 |
| 20260510140037 | 69 | 0 | 0.0 | 2.0 | 0.00 | 0.00 | 0.00 | 94 | 1015.2 |
| 20260510135534 | 69 | 99 | 0.0 | 1.0 | 0.00 | 0.00 | 0.00 | 94 | 1015.0 |
| 20260510135034 | 68 | 94 | 0.0 | 0.0 | 0.00 | 0.00 | 0.00 | 94 | 1015.0 |
| 20260510134543 | 68 | 0 | 0.0 | 0.0 | 0.00 | 0.00 | 0.00 | 95 | 1015.1 |
| 20260510134034 | 68 | 0 | 0.0 | 0.0 | 0.00 | 0.00 | 0.00 | 95 | 1015.1 |
| 20260510133533 | 68 | 0 | 0.0 | 0.0 | 0.00 | 0.00 | 0.00 | 95 | 1015.1 |
| 20260510133042 | 68 | 0 | 0.0 | 0.0 | 0.00 | 0.00 | 0.00 | 95 | 1015.2 |
| 20260510132532 | 68 | 0 | 0.0 | 0.0 | 0.00 | 0.00 | 0.00 | 95 | 1015.2 |
| 20260510132034 | 68 | 0 | 0.0 | 0.0 | 0.00 | 0.00 | 0.00 | 96 | 1015.1 |
| 20260510131542 | 68 | 0 | 0.0 | 0.0 | 0.00 | 0.00 | 0.00 | 95 | 1015.0 |
| 20260510131032 | 68 | 0 | 0.0 | 0.0 | 0.00 | 0.00 | 0.00 | 95 | 1015.1 |
| 20260510130533 | 68 | 0 | 0.0 | 0.0 | 0.00 | 0.00 | 0.00 | 95 | 1015.0 |
| 20260510130040 | 68 | 0 | 0.0 | 0.0 | 0.00 | 0.00 | 0.00 | 96 | 1015.0 |
| 20260510125532 | 68 | 0 | 0.0 | 0.0 | 0.00 | 0.00 | 0.00 | 96 | 1015.1 |
| 20260510125033 | 68 | 0 | 0.0 | 0.0 | 0.00 | 0.00 | 0.00 | 96 | 1015.0 |
| 20260510124545 | 68 | 0 | 0.0 | 0.0 | 0.00 | 0.00 | 0.00 | 96 | 1014.9 |
| 20260510124034 | 67 | 0 | 0.0 | 0.0 | 0.00 | 0.00 | 0.00 | 96 | 1014.8 |
| 20260510123533 | 67 | 0 | 0.0 | 0.0 | 0.00 | 0.00 | 0.00 | 96 | 1014.6 |
| 20260510123043 | 67 | 0 | 0.0 | 0.0 | 0.00 | 0.00 | 0.00 | 96 | 1014.9 |
| 20260510122534 | 67 | 0 | 0.0 | 0.0 | 0.00 | 0.00 | 0.00 | 95 | 1015.0 |
| 20260510122033 | 67 | 0 | 0.0 | 0.0 | 0.00 | 0.00 | 0.00 | 96 | 1015.0 |
| 20260510121543 | 66 | 0 | 0.0 | 0.0 | 0.00 | 0.00 | 0.00 | 95 | 1015.0 |
| 20260510121036 | 66 | 0 | 0.0 | 0.0 | 0.00 | 0.00 | 0.00 | 95 | 1014.8 |
| 20260510120533 | 66 | 0 | 0.0 | 0.0 | 0.00 | 0.00 | 0.00 | 95 | 1014.8 |
| 20260510120041 | 66 | 0 | 0.0 | 0.0 | 0.00 | 0.00 | 0.00 | 95 | 1014.9 |
| 20260510115535 | 66 | 0 | 0.0 | 0.0 | 0.00 | 0.00 | 0.00 | 95 | 1014.9 |
| 20260510115033 | 65 | 0 | 0.0 | 0.0 | 0.00 | 0.00 | 0.00 | 95 | 1014.7 |
| 20260510114537 | 65 | 0 | 0.0 | 0.0 | 0.00 | 0.00 | 0.00 | 95 | 1014.7 |
| 20260510114033 | 65 | 0 | 0.0 | 0.0 | 0.00 | 0.00 | 0.00 | 95 | 1014.7 |
| 20260510113533 | 65 | 0 | 0.0 | 0.0 | 0.00 | 0.00 | 0.00 | 95 | 1014.6 |
| 20260510113045 | 65 | 0 | 0.0 | 0.0 | 0.00 | 0.00 | 0.00 | 95 | 1014.5 |
| 20260510112533 | 65 | 0 | 0.0 | 0.0 | 0.00 | 0.00 | 0.00 | 95 | 1014.3 |
| 20260510112035 | 65 | 0 | 0.0 | 0.0 | 0.00 | 0.00 | 0.00 | 95 | 1014.3 |
| 20260510111603 | 65 | 0 | 0.0 | 0.0 | 0.00 | 0.00 | 0.00 | 95 | 1014.3 |
| 20260510111032 | 65 | 0 | 0.0 | 0.0 | 0.00 | 0.00 | 0.00 | 95 | 1014.2 |
| 20260510110534 | 65 | 0 | 0.0 | 0.0 | 0.00 | 0.00 | 0.00 | 95 | 1014.1 |
| 20260510110046 | 65 | 0 | 0.0 | 0.0 | 0.00 | 0.00 | 0.00 | 94 | 1014.1 |
| 20260510105533 | 65 | 0 | 0.0 | 0.0 | 0.00 | 0.00 | 0.00 | 94 | 1014.0 |
| 20260510105034 | 65 | 0 | 0.0 | 0.0 | 0.00 | 0.00 | 0.00 | 95 | 1013.9 |
| 20260510104542 | 65 | 0 | 0.0 | 0.0 | 0.00 | 0.00 | 0.00 | 94 | 1013.8 |
| 20260510104033 | 65 | 0 | 0.0 | 0.0 | 0.00 | 0.00 | 0.00 | 94 | 1013.7 |
| 20260510103533 | 65 | 0 | 0.0 | 0.0 | 0.00 | 0.00 | 0.00 | 94 | 1013.6 |
| 20260510103041 | 65 | 0 | 0.0 | 0.0 | 0.00 | 0.00 | 0.00 | 94 | 1013.4 |
| 20260510102533 | 65 | 0 | 0.0 | 0.0 | 0.00 | 0.00 | 0.00 | 94 | 1013.5 |
| 20260510102032 | 65 | 0 | 0.0 | 0.0 | 0.00 | 0.00 | 0.00 | 94 | 1013.4 |
| 20260510101543 | 65 | 0 | 0.0 | 0.0 | 0.00 | 0.00 | 0.00 | 94 | 1013.2 |
| 20260510101033 | 65 | 0 | 0.0 | 0.0 | 0.00 | 0.00 | 0.00 | 94 | 1013.1 |
| 20260510100533 | 65 | 0 | 0.0 | 0.0 | 0.00 | 0.00 | 0.00 | 94 | 1013.1 |
| 20260510100043 | 65 | 0 | 0.0 | 0.0 | 0.00 | 0.00 | 0.00 | 94 | 1013.0 |
| 20260510095534 | 65 | 0 | 0.0 | 0.0 | 0.00 | 0.00 | 0.00 | 94 | 1013.1 |
| 20260510095034 | 65 | 0 | 0.0 | 0.0 | 0.00 | 0.00 | 0.00 | 94 | 1012.9 |
| 20260510094541 | 65 | 0 | 0.0 | 0.0 | 0.00 | 0.00 | 0.00 | 94 | 1012.9 |
| 20260510094033 | 65 | 0 | 0.0 | 0.0 | 0.00 | 0.00 | 0.00 | 94 | 1012.9 |
| 20260510093533 | 65 | 0 | 0.0 | 0.0 | 0.00 | 0.00 | 0.00 | 94 | 1012.9 |
| 20260510093100 | 65 | 0 | 0.0 | 0.0 | 0.00 | 0.00 | 0.00 | 94 | 1012.8 |
| 20260510092532 | 65 | 0 | 0.0 | 0.0 | 0.00 | 0.00 | 0.00 | 94 | 1012.8 |
| 20260510092033 | 65 | 0 | 0.0 | 0.0 | 0.00 | 0.00 | 0.00 | 94 | 1012.8 |
| 20260510091540 | 65 | 0 | 0.0 | 0.0 | 0.00 | 0.00 | 0.00 | 94 | 1012.8 |
| 20260510091033 | 65 | 0 | 0.0 | 0.0 | 0.00 | 0.00 | 0.00 | 94 | 1012.7 |
| 20260510090534 | 65 | 0 | 0.0 | 0.0 | 0.00 | 0.00 | 0.00 | 94 | 1012.6 |
| 20260510090054 | 65 | 0 | 0.0 | 0.0 | 0.00 | 0.00 | 0.00 | 94 | 1012.5 |
| 20260510085532 | 65 | 0 | 0.0 | 0.0 | 0.00 | 0.00 | 0.00 | 94 | 1012.5 |
| 20260510085032 | 65 | 0 | 0.0 | 0.0 | 0.00 | 0.00 | 0.00 | 94 | 1012.4 |
| 20260510084543 | 65 | 0 | 0.0 | 0.0 | 0.00 | 0.00 | 0.00 | 94 | 1012.3 |
| 20260510084033 | 65 | 0 | 0.0 | 0.0 | 0.00 | 0.00 | 0.00 | 94 | 1012.4 |
| 20260510083537 | 65 | 0 | 0.0 | 0.0 | 0.00 | 0.00 | 0.00 | 94 | 1012.4 |
| 20260510083050 | 65 | 0 | 0.0 | 0.0 | 0.00 | 0.00 | 0.00 | 94 | 1012.5 |
| 20260510082534 | 65 | 0 | 0.0 | 0.0 | 0.00 | 0.00 | 0.00 | 94 | 1012.4 |
| 20260510082033 | 65 | 0 | 0.0 | 0.0 | 0.00 | 0.00 | 0.00 | 94 | 1012.4 |
| 20260510081555 | 65 | 0 | 0.0 | 0.0 | 0.00 | 0.00 | 0.00 | 94 | 1012.5 |
| 20260510081032 | 65 | 0 | 0.0 | 0.0 | 0.00 | 0.00 | 0.00 | 94 | 1012.4 |
| 20260510080533 | 65 | 0 | 0.0 | 0.0 | 0.00 | 0.00 | 0.00 | 94 | 1012.3 |
| 20260510080046 | 65 | 0 | 0.0 | 0.0 | 0.00 | 0.00 | 0.00 | 94 | 1012.2 |
| 20260510075534 | 65 | 0 | 0.0 | 0.0 | 0.00 | 0.00 | 0.00 | 94 | 1012.1 |
| 20260510075033 | 65 | 0 | 0.0 | 0.0 | 0.00 | 0.00 | 0.00 | 94 | 1012.1 |
| 20260510074603 | 65 | 0 | 0.0 | 0.0 | 0.00 | 0.00 | 0.00 | 94 | 1012.1 |
| 20260510074033 | 65 | 0 | 0.0 | 0.0 | 0.00 | 0.00 | 0.00 | 94 | 1012.1 |
| 20260510073532 | 65 | 0 | 0.0 | 0.0 | 0.00 | 0.00 | 0.00 | 94 | 1012.0 |
| 20260510073047 | 65 | 0 | 0.0 | 0.0 | 0.00 | 0.00 | 0.00 | 94 | 1012.1 |
| 20260510072533 | 65 | 0 | 0.0 | 0.0 | 0.00 | 0.00 | 0.00 | 94 | 1012.1 |
| 20260510072034 | 65 | 0 | 0.0 | 0.0 | 0.00 | 0.00 | 0.00 | 94 | 1012.1 |
| 20260510071543 | 65 | 0 | 0.0 | 0.0 | 0.00 | 0.00 | 0.00 | 94 | 1012.0 |
| 20260510071033 | 65 | 0 | 0.0 | 0.0 | 0.00 | 0.00 | 0.00 | 93 | 1011.9 |
| 20260510070532 | 65 | 0 | 0.0 | 0.0 | 0.00 | 0.00 | 0.00 | 94 | 1012.0 |
| 20260510070042 | 66 | 0 | 0.0 | 0.0 | 0.00 | 0.00 | 0.00 | 94 | 1012.0 |
| 20260510065534 | 66 | 0 | 0.0 | 0.0 | 0.00 | 0.00 | 0.00 | 94 | 1011.9 |
| 20260510065033 | 66 | 0 | 0.0 | 0.0 | 0.00 | 0.00 | 0.00 | 94 | 1011.8 |
| 20260510064538 | 66 | 0 | 0.0 | 0.0 | 0.00 | 0.00 | 0.00 | 94 | 1011.9 |
| 20260510064034 | 66 | 0 | 0.0 | 0.0 | 0.00 | 0.00 | 0.00 | 94 | 1011.9 |
| 20260510063534 | 66 | 0 | 0.0 | 0.0 | 0.00 | 0.00 | 0.00 | 94 | 1011.9 |
| 20260510063044 | 66 | 0 | 0.0 | 0.0 | 0.00 | 0.00 | 0.00 | 94 | 1012.0 |
| 20260510062534 | 66 | 0 | 0.0 | 0.0 | 0.00 | 0.00 | 0.00 | 93 | 1012.0 |
| 20260510062033 | 66 | 0 | 0.0 | 0.0 | 0.00 | 0.00 | 0.00 | 93 | 1011.9 |
| 20260510061544 | 66 | 0 | 0.0 | 0.0 | 0.00 | 0.00 | 0.00 | 93 | 1012.1 |
| 20260510061033 | 66 | 0 | 0.0 | 0.0 | 0.00 | 0.00 | 0.00 | 93 | 1012.2 |
| 20260510060534 | 66 | 0 | 0.0 | 0.0 | 0.00 | 0.00 | 0.00 | 93 | 1012.2 |
| 20260510060043 | 66 | 0 | 0.0 | 0.0 | 0.00 | 0.00 | 0.00 | 93 | 1012.1 |
| 20260510055534 | 66 | 0 | 0.0 | 0.0 | 0.00 | 0.00 | 0.00 | 93 | 1012.1 |
| 20260510055034 | 66 | 0 | 0.0 | 0.0 | 0.00 | 0.00 | 0.00 | 93 | 1012.1 |
| 20260510054541 | 66 | 0 | 0.0 | 0.0 | 0.00 | 0.00 | 0.00 | 93 | 1012.1 |
| 20260510054032 | 66 | 0 | 0.0 | 0.0 | 0.00 | 0.00 | 0.00 | 93 | 1012.2 |
| 20260510053535 | 66 | 0 | 0.0 | 0.0 | 0.00 | 0.00 | 0.00 | 93 | 1012.2 |
| 20260510053041 | 66 | 0 | 0.0 | 0.0 | 0.00 | 0.00 | 0.00 | 93 | 1012.2 |
| 20260510052533 | 66 | 0 | 0.0 | 0.0 | 0.00 | 0.00 | 0.00 | 93 | 1012.2 |
| 20260510052033 | 67 | 0 | 0.0 | 0.0 | 0.00 | 0.00 | 0.00 | 93 | 1012.2 |
| 20260510051544 | 67 | 0 | 0.0 | 0.0 | 0.00 | 0.00 | 0.00 | 93 | 1012.3 |
| 20260510051033 | 67 | 0 | 0.0 | 0.0 | 0.00 | 0.00 | 0.00 | 93 | 1012.2 |
| 20260510050533 | 67 | 0 | 0.0 | 0.0 | 0.00 | 0.00 | 0.00 | 93 | 1012.3 |
| 20260510050045 | 67 | 0 | 0.0 | 0.0 | 0.00 | 0.00 | 0.00 | 93 | 1012.3 |
| 20260510045536 | 67 | 0 | 0.0 | 0.0 | 0.00 | 0.00 | 0.00 | 93 | 1012.3 |
| 20260510045034 | 67 | 0 | 0.0 | 0.0 | 0.00 | 0.00 | 0.00 | 93 | 1012.4 |
| 20260510044557 | 67 | 0 | 0.0 | 0.0 | 0.00 | 0.00 | 0.00 | 93 | 1012.5 |
| 20260510044033 | 67 | 0 | 0.0 | 0.0 | 0.00 | 0.00 | 0.00 | 93 | 1012.5 |
| 20260510043533 | 67 | 0 | 0.0 | 0.0 | 0.00 | 0.00 | 0.00 | 93 | 1012.4 |
| 20260510043042 | 67 | 0 | 0.0 | 0.0 | 0.00 | 0.00 | 0.00 | 93 | 1012.5 |
| 20260510042533 | 67 | 0 | 0.0 | 0.0 | 0.00 | 0.00 | 0.00 | 93 | 1012.4 |
| 20260510042033 | 67 | 0 | 0.0 | 0.0 | 0.00 | 0.00 | 0.00 | 93 | 1012.4 |
| 20260510041537 | 67 | 0 | 0.0 | 0.0 | 0.00 | 0.00 | 0.00 | 93 | 1012.5 |
| 20260510041034 | 67 | 0 | 0.0 | 0.0 | 0.00 | 0.00 | 0.00 | 93 | 1012.4 |
| 20260510040533 | 67 | 0 | 0.0 | 0.0 | 0.00 | 0.00 | 0.00 | 93 | 1012.5 |
| 20260510040047 | 67 | 0 | 0.0 | 0.0 | 0.00 | 0.00 | 0.00 | 93 | 1012.4 |
| 20260510035534 | 67 | 0 | 0.0 | 0.0 | 0.00 | 0.00 | 0.00 | 93 | 1012.4 |
| 20260510035034 | 67 | 0 | 0.0 | 0.0 | 0.00 | 0.00 | 0.00 | 93 | 1012.2 |
| 20260510034545 | 67 | 0 | 0.0 | 0.0 | 0.00 | 0.00 | 0.00 | 93 | 1012.3 |
| 20260510034036 | 67 | 0 | 0.0 | 0.0 | 0.00 | 0.00 | 0.00 | 93 | 1012.2 |
| 20260510033533 | 67 | 0 | 0.0 | 0.0 | 0.00 | 0.00 | 0.00 | 92 | 1012.2 |
| 20260510033044 | 67 | 0 | 0.0 | 0.0 | 0.00 | 0.00 | 0.00 | 92 | 1012.3 |
| 20260510032534 | 67 | 0 | 0.0 | 0.0 | 0.00 | 0.00 | 0.00 | 92 | 1012.3 |
| 20260510032034 | 67 | 0 | 0.0 | 0.0 | 0.00 | 0.00 | 0.00 | 92 | 1012.3 |
| 20260510031541 | 67 | 0 | 0.0 | 0.0 | 0.00 | 0.00 | 0.00 | 92 | 1012.3 |
| 20260510031033 | 67 | 0 | 0.0 | 0.0 | 0.00 | 0.00 | 0.00 | 91 | 1012.2 |
| 20260510030533 | 67 | 0 | 0.0 | 0.0 | 0.00 | 0.00 | 0.00 | 91 | 1012.3 |
| 20260510030045 | 67 | 0 | 0.0 | 0.0 | 0.00 | 0.00 | 0.00 | 91 | 1012.3 |
| 20260510025533 | 67 | 0 | 0.0 | 0.0 | 0.00 | 0.00 | 0.00 | 91 | 1012.4 |
| 20260510025033 | 67 | 0 | 0.0 | 0.0 | 0.00 | 0.00 | 0.00 | 91 | 1012.4 |
| 20260510024545 | 68 | 0 | 0.0 | 0.0 | 0.00 | 0.00 | 0.00 | 91 | 1012.3 |
| 20260510024032 | 67 | 0 | 0.0 | 0.0 | 0.00 | 0.00 | 0.00 | 91 | 1012.2 |
| 20260510023532 | 67 | 0 | 0.0 | 0.0 | 0.00 | 0.00 | 0.00 | 91 | 1012.3 |
| 20260510023048 | 68 | 0 | 0.0 | 0.0 | 0.00 | 0.00 | 0.00 | 90 | 1012.1 |
| 20260510022532 | 68 | 0 | 0.0 | 0.0 | 0.00 | 0.00 | 0.00 | 90 | 1012.3 |
| 20260510022033 | 68 | 0 | 0.0 | 0.0 | 0.00 | 0.00 | 0.00 | 90 | 1012.2 |
| 20260510021541 | 68 | 0 | 0.0 | 0.0 | 0.00 | 0.00 | 0.00 | 90 | 1012.1 |
| 20260510021032 | 68 | 0 | 0.0 | 0.0 | 0.00 | 0.00 | 0.00 | 89 | 1012.0 |
| 20260510020532 | 68 | 0 | 0.0 | 0.0 | 0.00 | 0.00 | 0.00 | 89 | 1011.9 |
| 20260510020043 | 68 | 0 | 0.0 | 0.0 | 0.00 | 0.00 | 0.00 | 89 | 1011.9 |
| 20260510015533 | 68 | 0 | 0.0 | 0.0 | 0.00 | 0.00 | 0.00 | 89 | 1011.8 |
| 20260510015034 | 68 | 0 | 0.0 | 0.0 | 0.00 | 0.00 | 0.00 | 89 | 1011.9 |
| 20260510014540 | 68 | 0 | 0.0 | 0.0 | 0.00 | 0.00 | 0.00 | 89 | 1011.9 |
| 20260510014032 | 69 | 0 | 0.0 | 0.0 | 0.00 | 0.00 | 0.00 | 89 | 1011.8 |
| 20260510013531 | 69 | 0 | 0.0 | 0.0 | 0.00 | 0.00 | 0.00 | 89 | 1011.9 |
| 20260510013045 | 69 | 0 | 0.0 | 0.0 | 0.00 | 0.00 | 0.00 | 89 | 1011.8 |
| 20260510012534 | 69 | 0 | 0.0 | 0.0 | 0.00 | 0.00 | 0.00 | 88 | 1011.8 |
| 20260510012033 | 69 | 0 | 0.0 | 0.0 | 0.00 | 0.00 | 0.00 | 88 | 1011.9 |
| 20260510011542 | 69 | 0 | 0.0 | 0.0 | 0.00 | 0.00 | 0.00 | 88 | 1011.9 |
| 20260510011032 | 69 | 0 | 0.0 | 0.0 | 0.00 | 0.00 | 0.00 | 88 | 1011.8 |
| 20260510010532 | 70 | 0 | 0.0 | 0.0 | 0.00 | 0.00 | 0.00 | 87 | 1011.6 |
| 20260510010046 | 70 | 0 | 0.0 | 0.0 | 0.00 | 0.00 | 0.00 | 87 | 1011.7 |
| 20260510005532 | 70 | 0 | 0.0 | 0.0 | 0.00 | 0.00 | 0.00 | 86 | 1011.6 |
| 20260510005032 | 70 | 0 | 0.0 | 0.0 | 0.00 | 0.00 | 0.00 | 85 | 1011.6 |
| 20260510004543 | 70 | 0 | 0.0 | 0.0 | 0.00 | 0.00 | 0.00 | 85 | 1011.6 |
| 20260510004032 | 70 | 0 | 0.0 | 0.0 | 0.00 | 0.00 | 0.00 | 86 | 1011.5 |
| 20260510003532 | 71 | 0 | 0.0 | 0.0 | 0.00 | 0.00 | 0.00 | 85 | 1011.5 |
| 20260510003043 | 71 | 0 | 0.0 | 0.0 | 0.00 | 0.00 | 0.00 | 86 | 1011.5 |
| 20260510002532 | 71 | 0 | 0.0 | 0.0 | 0.00 | 0.00 | 0.00 | 85 | 1011.4 |
| 20260510002033 | 71 | 0 | 0.0 | 0.0 | 0.00 | 0.00 | 0.00 | 85 | 1011.3 |
| 20260510001545 | 71 | 0 | 0.0 | 0.0 | 0.00 | 0.00 | 0.00 | 85 | 1011.3 |
| 20260510001034 | 71 | 0 | 0.0 | 0.0 | 0.00 | 0.00 | 0.00 | 84 | 1011.3 |
| 20260510000533 | 71 | 0 | 0.0 | 0.0 | 0.00 | 0.00 | 0.00 | 85 | 1011.2 |
| 20260510000044 | 72 | 0 | 0.0 | 0.0 | 0.00 | 0.00 | 0.00 | 84 | 1011.0 |
| 20260509235532 | 72 | 0 | 0.0 | 0.0 | 0.00 | 0.00 | 0.00 | 85 | 1011.1 |
| 20260509235032 | 72 | 0 | 0.0 | 0.0 | 0.00 | 0.00 | 0.00 | 85 | 1011.0 |
| 20260509234541 | 72 | 0 | 0.0 | 0.0 | 0.00 | 0.00 | 0.00 | 85 | 1010.9 |
| 20260509234035 | 72 | 0 | 0.0 | 0.0 | 0.00 | 0.00 | 0.00 | 84 | 1011.0 |
| 20260509233532 | 72 | 0 | 0.0 | 0.0 | 0.00 | 0.00 | 0.00 | 84 | 1010.9 |
| 20260509233043 | 72 | 0 | 0.0 | 0.0 | 0.00 | 0.00 | 0.00 | 84 | 1010.9 |
| 20260509232532 | 72 | 0 | 0.0 | 0.0 | 0.00 | 0.00 | 0.00 | 84 | 1010.8 |
| 20260509232031 | 72 | 0 | 0.0 | 0.0 | 0.00 | 0.00 | 0.00 | 84 | 1011.0 |
| 20260509231544 | 72 | 0 | 0.0 | 0.0 | 0.00 | 0.00 | 0.00 | 84 | 1010.9 |
| 20260509231032 | 72 | 0 | 0.0 | 0.0 | 0.00 | 0.00 | 0.00 | 83 | 1010.8 |
| 20260509230533 | 72 | 0 | 0.0 | 0.0 | 0.00 | 0.00 | 0.00 | 83 | 1010.9 |
| 20260509230045 | 72 | 0 | 0.0 | 0.0 | 0.00 | 0.00 | 0.00 | 83 | 1010.8 |
| 20260509225535 | 73 | 0 | 0.0 | 0.0 | 0.00 | 0.00 | 0.00 | 83 | 1010.9 |
| 20260509225032 | 73 | 0 | 0.0 | 0.0 | 0.00 | 0.00 | 0.00 | 83 | 1010.7 |
| 20260509224541 | 73 | 0 | 0.0 | 0.0 | 0.00 | 0.00 | 0.00 | 82 | 1010.7 |
| 20260509224034 | 73 | 0 | 0.0 | 0.0 | 0.00 | 0.00 | 0.00 | 82 | 1010.7 |
| 20260509223533 | 73 | 0 | 0.0 | 0.0 | 0.00 | 0.00 | 0.00 | 82 | 1010.8 |
| 20260509223042 | 73 | 0 | 0.0 | 0.0 | 0.00 | 0.00 | 0.00 | 82 | 1010.9 |
| 20260509222532 | 73 | 0 | 0.0 | 0.0 | 0.00 | 0.00 | 0.00 | 81 | 1010.8 |
| 20260509222035 | 73 | 0 | 0.0 | 0.0 | 0.00 | 0.00 | 0.00 | 81 | 1010.9 |
| 20260509221539 | 73 | 0 | 0.0 | 0.0 | 0.00 | 0.00 | 0.00 | 81 | 1010.9 |
| 20260509221031 | 73 | 0 | 0.0 | 0.0 | 0.00 | 0.00 | 0.00 | 81 | 1010.9 |
| 20260509220532 | 73 | 0 | 0.0 | 0.0 | 0.00 | 0.00 | 0.00 | 80 | 1010.8 |
| 20260509220050 | 73 | 0 | 0.0 | 0.0 | 0.00 | 0.00 | 0.00 | 80 | 1010.7 |
| 20260509215533 | 73 | 0 | 0.0 | 0.0 | 0.00 | 0.00 | 0.00 | 80 | 1010.8 |
| 20260509215033 | 73 | 0 | 0.0 | 2.0 | 0.00 | 0.00 | 0.00 | 79 | 1010.8 |
| 20260509214543 | 73 | 0 | 0.0 | 2.0 | 0.00 | 0.00 | 0.00 | 79 | 1010.9 |
| 20260509214036 | 73 | 144 | 0.0 | 2.0 | 0.00 | 0.00 | 0.00 | 79 | 1010.9 |
| 20260509213532 | 73 | 0 | 0.0 | 1.0 | 0.00 | 0.00 | 0.00 | 80 | 1010.8 |
| 20260509213049 | 73 | 0 | 0.0 | 0.0 | 0.00 | 0.00 | 0.00 | 80 | 1010.8 |
| 20260509212533 | 73 | 0 | 0.0 | 0.0 | 0.00 | 0.00 | 0.00 | 79 | 1010.9 |
| 20260509212032 | 73 | 0 | 0.0 | 0.0 | 0.00 | 0.00 | 0.00 | 79 | 1010.9 |
| 20260509211551 | 73 | 0 | 0.0 | 1.0 | 0.00 | 0.00 | 0.00 | 79 | 1010.7 |
| 20260509211035 | 73 | 0 | 0.0 | 1.0 | 0.00 | 0.00 | 0.00 | 79 | 1010.8 |
| 20260509210532 | 73 | 0 | 0.0 | 1.0 | 0.00 | 0.00 | 0.00 | 78 | 1010.8 |
| 20260509210045 | 73 | 0 | 0.0 | 1.0 | 0.00 | 0.00 | 0.00 | 78 | 1010.7 |
| 20260509205532 | 74 | 0 | 0.0 | 1.0 | 0.00 | 0.00 | 0.00 | 78 | 1010.7 |
| 20260509205032 | 74 | 0 | 0.0 | 0.0 | 0.00 | 0.00 | 0.00 | 78 | 1010.6 |
| 20260509204542 | 74 | 0 | 0.0 | 0.0 | 0.00 | 0.00 | 0.00 | 77 | 1010.6 |
| 20260509204033 | 74 | 0 | 0.0 | 0.0 | 0.00 | 0.00 | 0.00 | 77 | 1010.5 |
| 20260509203533 | 74 | 0 | 0.0 | 0.0 | 0.00 | 0.00 | 0.00 | 77 | 1010.4 |
| 20260509203103 | 74 | 0 | 0.0 | 0.0 | 0.00 | 0.00 | 0.00 | 77 | 1010.5 |
| 20260509202532 | 74 | 0 | 0.0 | 0.0 | 0.00 | 0.00 | 0.00 | 77 | 1010.7 |
| 20260509202036 | 74 | 0 | 0.0 | 0.0 | 0.00 | 0.00 | 0.00 | 77 | 1010.8 |
| 20260509201541 | 74 | 0 | 0.0 | 0.0 | 0.00 | 0.00 | 0.00 | 76 | 1010.9 |
| 20260509201032 | 74 | 0 | 0.0 | 1.0 | 0.00 | 0.00 | 0.00 | 76 | 1010.9 |
| 20260509200532 | 74 | 0 | 0.0 | 1.0 | 0.00 | 0.00 | 0.00 | 75 | 1010.9 |
| 20260509200055 | 75 | 0 | 0.0 | 1.0 | 0.00 | 0.00 | 0.00 | 76 | 1011.0 |
| 20260509195532 | 75 | 0 | 0.0 | 1.0 | 0.00 | 0.00 | 0.00 | 76 | 1010.9 |
| 20260509195032 | 75 | 0 | 0.0 | 0.0 | 0.00 | 0.00 | 0.00 | 76 | 1011.0 |